Regional Weather Roundup
Issued by NWS

Home | Current Version | Previous Version | Graphics & Text | Print | Product List | Glossary Off
Versions: 1 2 3 4 5 6 7 8 9 10 11 12 13 14 15 16 17 18 19 20 21 22 23 24 25 26 27 28 29 30 31 32 33 34 35 36 37 38 39 40 41 42 43 44 45 46 47 48 49 50

000
ASUS43 KTOP 280208
RWRKS

WEATHER ROUNDUP FOR KANSAS
NATIONAL WEATHER SERVICE GOODLAND KS
900 PM CDT FRI MAY 27 2016

NOTE:  "FAIR" INDICATES FEW OR NO CLOUDS BELOW 12,000 FEET WITH NO
SIGNIFICANT WEATHER AND/OR OBSTRUCTIONS TO VISIBILITY.

KSZ001>006-013>018-027>032-041>047-280300-
NORTHWEST KANSAS

CITY           SKY/WX    TMP DP  RH WIND       PRES   REMARKS
GOODLAND       MOCLDY    52  49  89 N14       29.79R
HAYS           CLOUDY    27 N/A N/A S22G33    29.73R THUNDER WCI  12
HILL CITY      PTCLDY    63  59  87 NW7       29.71R
RUSSELL        CLOUDY    63  53  70 W25G33    29.67R THUNDER
$$

KSZ061>065-074>080-084>089-280300-
SOUTHWEST KANSAS

CITY           SKY/WX    TMP DP  RH WIND       PRES   REMARKS
DODGE CITY     MOCLDY    63  48  58 W8        29.66R
ELKHART          N/A     60  45  57 NW14        N/A
GARDEN CITY    CLOUDY    58  48  69 N22G30    29.71R
GREAT BEND     CLOUDY    64  52  63 E10       29.62F
LIBERAL        CLEAR     59  43  55 W20G26    29.77R
PRATT          MOCLDY    66  53  63 SW8       29.65R
$$

KSZ066>073-081>083-090>101-280300-
SOUTHEAST KANSAS

CITY           SKY/WX    TMP DP  RH WIND       PRES   REMARKS
CHANUTE        CLOUDY    67  58  72 W30G41    29.77R
COFFEYVILLE    CLOUDY    71  64  78 S7        29.71R
HUTCHINSON     PTCLDY    64  58  80 SE13      29.66R
MEDICINE LODGE   N/A     69  59  70 SE9G18    29.65R
NEWTON         CLOUDY    59  54  82 SE6       29.68F
PARSONS        PTCLDY    72  65  78 CALM      29.74R
WICHITA INTL   CLOUDY    64  59  83 E12       29.65S
WICHITA JABRA  CLOUDY    62  59  90 SE12      29.66S
WICHITA MCCONL CLOUDY    63  59  87 E9        29.66S
WINFIELD       LGT RAIN  61  58  90 SE10      29.69R
$$

KSZ007>012-019>026-033>040-048>060-102>105-280300-
NORTHEAST KANSAS

CITY           SKY/WX    TMP DP  RH WIND       PRES   REMARKS
CONCORDIA      CLOUDY    61  55  81 NE10      29.68F
EMPORIA        RAIN      60  58  92 SW5       29.73S
LAWRENCE       CLOUDY    65  55  70 NW18G28   29.75R
MANHATTAN      CLOUDY    61  57  87 NE8       29.67F
MARYSVILLE     LGT RAIN  59  55  88 SW6       29.74R
OLATHE IND     TSTM      69  64  84 CALM      29.74R
OLATHE EXE     CLOUDY    70  65  84 SE5       29.74R
SALINA         CLOUDY    65  53  65 E9        29.66R
TOPEKA BILLARD CLOUDY    61  58  90 NW3       29.73F
TOPEKA FORBES  CLOUDY    62  56  80 NW5       29.73F
$$




USA.gov is the U.S. government's official web portal to all federal, state and local government web resources and services.